Weather History for West Plains, MO

Change the Weather History Date:

Friday, May 10, 2013

  Actual Average Record
Temperature  
Mean Temperature 63 °F 64 °F  
Max Temperature 74 °F 75 °F 88 °F (1963)
Min Temperature 51 °F 52 °F 32 °F (1961)
Degree Days  
Heating Degree Days 2 3  
Month to date heating degree days 89 39  
Since 1 July heating degree days 4451 4301  
Cooling Degree Days 0 2  
Month to date cooling degree days 7 16  
Year to date cooling degree days 26 44  
Growing Degree Days 14 (Base 50)    
Moisture  
Dew Point 55 °F    
Average Humidity 77    
Maximum Humidity 96    
Minimum Humidity 57    
Precipitation  
Precipitation 0.01 in 0.16 in 2.00 in (1996)
Month to date precipitation 1.57 2.01  
Year to date precipitation 17.85 16.34  
Sea Level Pressure  
Sea Level Pressure 29.93 in    
Wind  
Wind Speed 6 mph (WNW)    
Max Wind Speed 15 mph    
Max Gust Speed 22 mph    
Visibility 10 miles    
Events      
T = Trace of Precipitation, MM = Missing Value Source: NWS Daily Summary

Daily Weather History Graph

Daily Weather History Graph

Search for Another Location

Airport:

Trip Planner

Search our weather history database for the weather conditions in past years. The results will help you decide how hot, cold, wet, or windy it might be!

Date:

Astronomy

May. 10, 2013 Rise Set
Actual Time 6:03 AM CDT 8:04 PM CDT
Civil Twilight 5:35 AM CDT 8:33 PM CDT
Nautical Twilight 5:00 AM CDT 9:08 PM CDT
Astronomical Twilight 4:23 AM CDT 9:45 PM CDT
Moon 6:28 AM CDT (5/10) 8:53 PM CDT (5/10)
Length of Visible Light 14h 57m
Length of Day
14h 00m
New Moon, 0% of the Moon is Illuminated
May 10
New Moon
May 17
First Quarter
May 24
Full
May 31
Last Quarter
Jun 8
New

Hourly Weather History & Observations

Time (CDT) Temp. Dew Point Humidity Pressure Visibility Wind Dir Wind Speed Gust Speed Precip Events Conditions
12:53 AM 62.1 °F 55.9 °F 80% 29.90 in 10.0 mi South 4.6 mph - N/A   Overcast
1:53 AM 61.0 °F 55.9 °F 83% 29.88 in 10.0 mi SSW 4.6 mph - N/A   Mostly Cloudy
2:53 AM 60.1 °F 55.9 °F 86% 29.89 in 10.0 mi West 5.8 mph - N/A   Overcast
3:53 AM 60.1 °F 55.9 °F 86% 29.90 in 10.0 mi WSW 5.8 mph - N/A   Overcast
4:53 AM 57.9 °F 55.9 °F 93% 29.89 in 10.0 mi WSW 5.8 mph - N/A   Scattered Clouds
5:53 AM 57.9 °F 55.9 °F 93% 29.89 in 10.0 mi SW 3.5 mph - N/A   Partly Cloudy
6:53 AM 57.0 °F 55.0 °F 93% 29.89 in 10.0 mi Calm Calm - N/A   Partly Cloudy
7:53 AM 60.1 °F 57.0 °F 90% 29.91 in 10.0 mi Calm Calm - N/A   Mostly Cloudy
8:31 AM 60.8 °F 57.2 °F 88% 29.94 in 10.0 mi Calm Calm - N/A   Overcast
8:53 AM 62.1 °F 57.0 °F 84% 29.93 in 10.0 mi West 4.6 mph - N/A   Overcast
9:37 AM 64.4 °F 57.2 °F 77% 29.95 in 10.0 mi NW 9.2 mph - N/A   Overcast
9:53 AM 66.0 °F 59.0 °F 78% 29.91 in 10.0 mi NW 10.4 mph - N/A   Mostly Cloudy
10:05 AM 64.4 °F 59.0 °F 83% 29.95 in 10.0 mi NNW 9.2 mph - N/A   Mostly Cloudy
10:43 AM 66.2 °F 59.0 °F 78% 29.95 in 10.0 mi NW 8.1 mph - N/A   Overcast
10:53 AM 68.0 °F 59.0 °F 73% 29.92 in 10.0 mi NW 9.2 mph - N/A   Overcast
11:41 AM 68.0 °F 57.2 °F 68% 29.95 in 10.0 mi NW 10.4 mph 17.3 mph N/A   Mostly Cloudy
12:53 PM 72.0 °F 55.9 °F 57% 29.92 in 10.0 mi Variable 3.5 mph - N/A   Scattered Clouds
1:53 PM 72.0 °F 55.9 °F 57% 29.91 in 10.0 mi NW 3.5 mph - N/A   Mostly Cloudy
2:53 PM 70.0 °F 57.0 °F 63% 29.91 in 10.0 mi NW 5.8 mph - 0.01 in   Mostly Cloudy
3:53 PM 72.0 °F 55.0 °F 55% 29.89 in 10.0 mi NW 11.5 mph - N/A   Mostly Cloudy
4:53 PM 70.0 °F 54.0 °F 57% 29.92 in 10.0 mi NW 15.0 mph 19.6 mph N/A   Scattered Clouds
5:53 PM 68.0 °F 53.1 °F 59% 29.92 in 10.0 mi NNW 12.7 mph - N/A   Partly Cloudy
6:53 PM 66.9 °F 52.0 °F 59% 29.93 in 10.0 mi NNW 12.7 mph 19.6 mph N/A   Scattered Clouds
7:53 PM 62.1 °F 52.0 °F 70% 29.95 in 10.0 mi NNW 8.1 mph - N/A   Clear
8:53 PM 57.9 °F 53.1 °F 84% 29.97 in 10.0 mi NNW 8.1 mph - N/A   Clear
9:53 PM 57.0 °F 52.0 °F 83% 29.99 in 10.0 mi NNW 6.9 mph - N/A   Clear
10:53 PM 55.0 °F 51.1 °F 86% 30.01 in 10.0 mi Variable 5.8 mph - N/A   Clear
11:53 PM 52.0 °F 50.0 °F 93% 30.03 in 10.0 mi Calm Calm - N/A   Clear